SB KEPS @ AMSAT $ORB14016.N 2Line Orbital Elements 14016.AMSAT
HR AMSAT ORBITAL ELEMENTS FOR AMATEUR SATELLITES IN NASA FORMAT FROM WA5QGD FORT WORTH,TX January 16, 2014 BID: ORB14016.N
DECODE 2-LINE ELSETS WITH THE FOLLOWING KEY: 1 AAAAAU 00 0 0 BBBBB.BBBBBBBB .CCCCCCCC 00000-0 00000-0 0 DDDZ 2 AAAAA EEE.EEEE FFF.FFFF GGGGGGG HHH.HHHH III.IIII JJ.JJJJJJJJKKKKKZ KEY: A-CATALOGNUM B-EPOCHTIME C-DECAY D-ELSETNUM E-INCLINATION F-RAAN G-ECCENTRICITY H-ARGPERIGEE I-MNANOM J-MNMOTION K-ORBITNUM Z-CHECKSUM
TO ALL RADIO AMATEURS BT
AO-07 1 07530U 74089B 14016.90432712 -.00000025 00000-0 11305-3 0 8735 2 07530 101.4560 003.8208 0011664 229.5363 185.1152 12.53601412792560 FO-29 1 24278U 96046B 14016.71292435 -.00000041 00000-0 -33404-5 0 2857 2 24278 098.5261 051.3998 0349790 330.7607 139.6954 13.53013666860183 SO-33 1 25509U 98061B 14015.20064197 .00000252 00000-0 35466-4 0 6708 2 25509 031.4349 307.0546 0350787 214.3148 297.1826 14.29285652795241 RS-22 1 27939U 03042A 14016.88266024 .00001015 00000-0 19838-3 0 1347 2 27939 097.7981 198.6564 0012330 227.6829 132.3353 14.64814183550579 VO-52 1 28650U 05017B 14016.16787003 .00002618 00000-0 31427-3 0 6341 2 28650 097.5613 028.8208 0024040 300.7962 150.2957 14.84627363470676 HO-68 1 36122U 09072B 14016.70508858 -.00000044 00000-0 00000 0 0 2402 2 36122 100.2751 073.0622 0007264 224.5751 135.4782 13.16310881196500 AO-73 1 39444U 13066AE 14016.15774962 .00002099 00000-0 29245-3 0 382 2 39444 097.7927 091.9571 0063980 017.2694 343.0667 14.77388289 7018 UO-11 1 14781U 84021B 14016.12731728 .00000786 00000-0 10760-3 0 3902 2 14781 097.8740 079.0848 0007618 321.8798 038.1875 14.81241086605451 AO-16 1 20439U 90005D 14016.09342891 .00000178 00000-0 82005-4 0 9322 2 20439 098.4949 316.4092 0009914 245.7182 180.8989 14.32266720252713 LO-19 1 20442U 90005G 14015.87845957 .00000160 00000-0 74960-4 0 8693 2 20442 098.4651 317.3178 0010981 235.4216 124.5933 14.32472871252879 AO-27 1 22825U 93061C 14015.89837882 .00000148 00000-0 75013-4 0 5744 2 22825 098.6458 322.9431 0008766 032.0494 004.1491 14.29641953 59023 IO-26 1 22826U 93061D 14015.91826947 .00000178 00000-0 86194-4 0 3314 2 22826 098.6399 323.2083 0009160 024.7090 335.4530 14.29934310 59154 GO-32 1 25397U 98043D 14015.97264256 .00000074 00000-0 51114-4 0 2543 2 25397 098.4483 339.8172 0002081 068.3230 333.6989 14.23394226806214 NO-44 1 26931U 01043C 14016.21136880 .00000097 00000-0 69652-4 0 5130 2 26931 067.0519 070.3269 0005859 266.2577 093.7854 14.30023318641877 SO-50 1 27607U 02058C 14016.22063785 .00000901 00000-0 15858-3 0 2759 2 27607 064.5586 335.4374 0033037 070.1239 031.5030 14.73340743595091 CO-55 1 27844U 03031E 14016.01580970 .00000295 00000-0 15498-3 0 8337 2 27844 098.7004 026.9858 0009411 001.2930 052.1049 14.21363690546969 CO-57 1 27848U 03031J 14015.98808296 .00000234 00000-0 12788-3 0 7746 2 27848 098.7095 026.5857 0009478 007.9164 045.4514 14.21070153546885 AO-51 1 28375U 04025K 14015.90409936 .00000261 00000-0 90310-4 0 7485 2 28375 098.2329 328.1666 0084571 092.9067 304.6374 14.41248293501977 CP3 1 31129U 07012N 14016.19460799 .00000853 00000-0 19864-3 0 6504 2 31129 097.9187 002.0742 0100655 124.0689 298.6019 14.54138566357947 CO-65 1 32785U 08021C 14016.14736831 .00001528 00000-0 18694-3 0 8447 2 32785 097.7220 072.3325 0013081 333.2323 082.8073 14.84572353309460 PRISM 1 33493U 09002B 14016.84106154 .00005182 00000-0 57479-3 0 5553 2 33493 098.2351 186.3487 0017148 215.5802 144.4274 14.87621557269664 SOHLA-1 1 33496U 09002E 14016.13874108 .00000519 00000-0 93855-4 0 2509 2 33496 098.1524 136.8997 0006368 017.5299 105.7391 14.70541144267164 TISAT-1 1 36799U 10035E 14016.82345973 .00003225 00000-0 38914-3 0 8209 2 36799 098.0231 107.8016 0015484 093.4941 266.8019 14.84436863190250 STUDSAT 1 36801U 10035G 14015.62173311 .00009735 00000-0 96367-3 0 7527 2 36801 098.0382 112.0775 0011232 075.7888 030.6198 14.92023513190349 ALMASAT-1 1 38078U 12006B 14016.54459156 .00036030 00000-0 79523-3 0 9043 2 38078 069.4781 061.5745 0648120 231.7790 122.3155 14.37391414 99757 XATCOBEO 1 38082U 12006F 14016.80759780 .00083224 46248-5 11130-2 0 8586 2 38082 069.4666 003.2783 0427030 200.3728 231.5294 14.94185853101366 CUBEBUG-1 1 39153U 13018D 14016.78422453 .00001889 00000-0 27440-3 0 7670 2 39153 098.0552 097.3786 0019238 115.4124 244.9076 14.77037500 39203 ESTCUBE-1 1 39161U 13021C 14016.67777755 .00001448 00000-0 25257-3 0 7371 2 39161 098.1105 098.6704 0010741 150.6433 209.5367 14.69462826 37342 NOAA-10 1 16969U 86073A 14016.54215872 .00000088 00000-0 53033-4 0 6396 2 16969 098.5270 044.5161 0011577 344.6824 168.3572 14.27705621422383 NOAA-11 1 19531U 88089A 14016.34551083 .00000094 00000-0 70806-4 0 6639 2 19531 098.6939 099.1967 0011185 018.4144 341.7433 14.15051044306261 NOAA-12 1 21263U 91032A 14016.55745411 .00000054 00000-0 41469-4 0 1307 2 21263 098.6791 045.0439 0012924 322.1744 150.5610 14.25618273178959 MET-3/5 1 21655U 91056A 14016.49027605 .00000431 00000-0 10872-2 0 8813 2 21655 082.5567 103.6092 0012194 318.9957 041.0248 13.17048650 78014 MET-2/21 1 22782U 93055A 14016.15670477 .00000072 00000-0 51404-4 0 9517 2 22782 082.5510 293.9324 0021606 334.7271 133.5366 13.83723606 29094 OKEAN-4 1 23317U 94066A 14016.85241578 .00001502 00000-0 17294-3 0 4318 2 23317 082.5371 209.7461 0019891 237.8259 255.1026 14.84981510 40643 NOAA-14 1 23455U 94089A 14016.51026475 .00000106 00000-0 78613-4 0 6084 2 23455 098.7880 102.5872 0010575 111.1918 009.6859 14.13942849982513 NOAA-15 1 25338U 98030A 14016.51007407 .00000157 00000-0 85693-4 0 389 2 25338 098.7432 010.7555 0010034 223.8739 296.7447 14.25327563815237 RESURS 1 25394U 98043A 14016.15435091 .00000037 00000-0 33720-4 0 5666 2 25394 098.3930 347.0997 0001390 037.2657 091.0189 14.24361167806679 FENGYUN1 1 25730U 99025A 14015.87221760 .00001540 00000-0 87482-3 0 584 2 25730 098.9011 338.0799 0026585 174.1892 239.6571 14.11230646756036 OKEAN-0 1 25860U 99039A 14016.02210832 .00000714 00000-0 11398-3 0 1495 2 25860 098.0228 341.0149 0001632 127.6028 274.3864 14.74910527779728 NOAA-16 1 26536U 00055A 14016.64211270 .00000200 00000-0 13153-3 0 5261 2 26536 099.0124 076.1993 0009812 250.6004 227.8438 14.12973167686714 NOAA-17 1 27453U 02032A 14016.52708122 .00000140 00000-0 77809-4 0 4307 2 27453 098.3117 024.2608 0010598 257.2255 255.7465 14.24674554601097 NOAA-18 1 28654U 05018A 14016.61243753 .00000141 00000-0 10242-3 0 9192 2 28654 099.1308 353.2234 0013747 332.9811 155.8844 14.11929318446174 NOAA-19 1 33591U 09005A 14016.46835294 .00000288 00000-0 18255-3 0 890 2 33591 098.9295 322.1006 0014049 183.7774 313.7074 14.11621202254583 HUBBLE 1 20580U 90037B 14016.27820477 .00002717 00000-0 17728-3 0 4173 2 20580 028.4712 315.1102 0003272 101.8188 028.2971 15.04523215101813 ISS 1 25544U 98067A 14016.89378796 .00010312 00000-0 18540-3 0 4790 2 25544 051.6509 129.4744 0006206 036.6372 062.6346 15.50453016867851 CO-58 1 28895U 05043F 14016.10566503 .00000922 00000-0 19436-3 0 6729 2 28895 097.8464 225.7826 0018647 128.6292 231.6583 14.61496101438039 FALCON 1 30776U 07006E 14016.34171339 .00008493 00000-0 46951-3 0 7810 2 30776 035.4316 331.8293 0001936 289.1526 204.3115 15.13241219377695 MAST 1 31126U 07012K 14015.95980914 .00000697 00000-0 16274-3 0 9499 2 31126 097.8998 004.9603 0094114 109.1090 310.7608 14.54901056358259 CAPE1 1 31130U 07012P 14016.14972625 .00000815 00000-0 19102-3 0 9547 2 31130 097.9197 001.6280 0101161 125.3072 235.7637 14.53930343357710 COMPASS 1 32787U 08021E 14016.12271526 .00002862 00000-0 32784-3 0 8327 2 32787 097.7238 073.9604 0013350 327.3588 032.6802 14.86649096309581 AAUSAT2 1 32788U 08021F 14016.12602088 .00002911 00000-0 32870-3 0 8162 2 32788 097.7250 074.7818 0012936 326.4861 033.5535 14.87226733309634 DO-64 1 32789U 08021G 14016.19951176 .00005840 00000-0 59832-3 0 8537 2 32789 097.7427 080.0394 0011876 315.3052 111.6669 14.90804529309838 CO-66 1 32791U 08021J 14016.08899502 .00002474 00000-0 29180-3 0 8119 2 32791 097.7240 072.9802 0013907 330.1910 029.8512 14.85565458309468 RS-30 1 32953U 08025A 14016.67397436 .00000010 00000-0 00000 0 0 5642 2 32953 082.5047 295.4272 0019062 124.2494 236.0393 12.43041784256435 METEOR-M 1 35865U 09049A 14016.72403152 -.00000000 00000-0 19233-4 0 1732 2 35865 098.5732 068.5704 0002355 157.8832 202.2445 14.21905044224818 RS-38 1 35869U 09049E 14016.71918370 .00000052 00000-0 42802-4 0 1237 2 35869 098.5664 068.4132 0004327 166.4728 193.6560 14.22172315224843 JUGNU 1 37839U 11058B 14016.48831272 .00000455 00000-0 10167-3 0 5439 2 37839 019.9624 094.2857 0019026 112.1972 007.4559 14.12233362117083 SRMSAT 1 37841U 11058D 14016.55658016 .00000404 00000-0 77820-4 0 5437 2 37841 019.9727 110.1599 0012064 058.3799 058.8940 14.10288810116926 RAX-2 1 37853U 11061D 14016.85874912 .00004216 00000-0 30908-3 0 6994 2 37853 101.7093 334.8045 0226415 133.5614 285.1896 14.86295068120156 AUBIESAT 1 37854U 11061E 14016.83170006 .00005821 00000-0 41221-3 0 6832 2 37854 101.7134 336.1382 0225588 131.5314 290.8317 14.87274813120187 HRBE 1 37855U 11061F 14016.50005881 .00005029 00000-0 36043-3 0 6932 2 37855 101.7131 335.2197 0227098 133.3612 344.1997 14.86783682120116 RS-39 1 38051U 11062C 14016.88334942 .00033044 00000-0 76291-3 0 1646 2 38051 051.6348 253.4047 0005896 320.2326 147.5037 15.42213245110634 E-STAR 1 38079U 12006C 14016.46101936 .00062366 39137-5 99778-3 0 7136 2 38079 069.4661 021.3035 0503547 210.1658 306.7926 14.74704217100845 GOLIAT 1 38085U 12006J 14016.84186443 .00069534 40306-5 11154-2 0 7259 2 38085 069.4710 024.6954 0519167 211.7798 221.6309 14.71332521100785 HORYU-2 1 38340U 12025D 14015.90724048 .00002135 00000-0 35052-3 0 7327 2 38340 098.2440 330.7959 0011808 303.4243 056.5829 14.71687937 89397 RS-40 1 38736U 12041D 14016.15095523 .00000010 00000-0 00000 0 0 4778 2 38736 082.4774 022.3358 0020478 219.4594 140.4997 12.42875524 66702 PROITERES 1 38756U 12047B 14016.82505985 .00001029 00000-0 16222-3 0 4901 2 38756 098.2361 102.6370 0013300 141.3093 218.9056 14.74586762 72872 BEESAT-3 1 39134U 13015E 14016.91676522 .00006343 00000-0 48578-3 0 4750 2 39134 064.8802 256.4169 0012157 330.6828 029.3604 15.02614759 40917 BEESAT-2 1 39136U 13015G 14016.86815923 .00005573 00000-0 43160-3 0 4651 2 39136 064.8767 256.6973 0012346 330.9463 029.0962 15.02331568 40909 CAPE-2 1 39380U 13064A 14016.61407246 .00004969 00000-0 22495-3 0 656 2 39380 040.5185 275.3533 0005091 330.6569 029.3960 15.21441017 8770 TRLBLAZER 1 39382U 13064C 14016.02493444 .00036910 00000-0 14507-2 0 709 2 39382 040.5033 277.8523 0004474 275.5074 084.5053 15.24944238 8684 TECHEDST3 1 39415U 98067DD 14015.90293569 .00000489 00000-0 12809-6 0 1265 2 39415 051.6250 126.7358 0011329 345.4786 014.6459 16.27530738 8861 ZACUBE-1 1 39417U 13066B 14016.76851778 .00001741 00000-0 24417-3 0 1728 2 39417 097.7940 092.5469 0063888 015.5771 344.7376 14.77334931 8336 TRITON-1 1 39427U 13066M 14016.22799075 .00001217 00000-0 21409-3 0 467 2 39427 097.7835 090.9055 0120299 014.2362 346.2177 14.64737293 8144 DELFIN3XT 1 39428U 13066N 14016.73579736 .00002096 00000-0 37604-3 0 509 2 39428 097.7832 091.1633 0131489 012.8286 347.6209 14.62250272 8190 GOMX-1 1 39430U 13066Q 14016.76185968 .00001155 00000-0 22965-3 0 1415 2 39430 097.7799 090.6632 0158957 013.3084 347.2195 14.56193778 8177 $50SAT 1 39436U 13066W 14016.16312422 .00011930 00000-0 13914-2 0 551 2 39436 097.7943 092.5792 0030754 031.7388 328.5506 14.85003692 8273 PUCPSAT-1 1 39442U 13066AC 14016.48179291 .00002774 00000-0 32815-3 0 411 2 39442 097.7966 092.9416 0036618 024.9830 335.3143 14.84943627 7107 /EX